Location: Arcusa
(42.3167°N, 0.0833°W)
Time: 05:05:43
(UTC+00:00)

Envisat - Pass Details

Date: 25 January 2020
Orbit: 764 x 766 km, 98.1° (Epoch: 25 February)

Event Time Altitude Azimuth Distance (km) Brightness Sun altitude
Rises 06:11:59 0° 19° (NNE) 3,241 6.3 -12.8°
Reaches altitude 10° 06:14:25 10° 26° (NNE) 2,310 5.6 -12.4°
Maximum altitude 06:19:15 43° 98° (E) 1,067 4.4 -11.5°
Drops below altitude 10° 06:24:03 10° 170° (S) 2,293 5.8 -10.7°
Sets 06:26:27 0° 177° (S) 3,214 6.5 -10.2°
